Flag for Vietnam Weather past 2 weeks in Da Nang, Vietnam

Now
82 °F

Passing clouds.


Feels Like: 91 °F
Forecast: 79 / 90 °F
Wind: 6 mph from Southwest

Location: Da Nang Airport

Current Time: Sep 22, 2014 at 1:39:40 AM

Latest Report: Sep 22, 2014 at 1:00 AM


Visibility: 5 mi

Pressure: 29.74 "Hg

Humidity: 84%

Dew point: 77 °F

Location of Da NangLocation

Historic Weather in Da Nang — Graph

°F

Da Nang temperature yesterday

Maximum temperature yesterday: 95 °F (at 9:30 AM)
Minimum temperature yesterday: 77 °F (at 12:30 AM)
Average temperature yesterday: 86 °F

Past Weeks' High & Low Weather Summary

 TemperatureHumidityPressure
High99 °F (Sep 20, 11:30 AM)94% (Sep 7, 3:00 AM)29.89 "Hg (Sep 7, 3:00 AM)
Low73 °F (Sep 20, 5:00 PM)44% (Sep 17, 9:30 AM)29.42 "Hg (Sep 16, 2:00 PM)
Average85 °F73%29.71 "Hg
* Reported Midnight between Sep 6 and Sep 7 — Sep 22 12:30 AM, Da Nang, Weather by CustomWeather, © 2014

Note: Actual official high and low records may vary slightly from our data, if they occured in-between our weather recording intervals... More about our weather records

Advertising

Da Nang weather history for previous 24 hours

 ConditionsComfort  
Time TempWeatherWind HumidityBarometerVisibility
12:30 AM
Sep 22
82 °FPassing clouds.3 mph89%29.77 "Hg5 mi
12:00 AM82 °FPassing clouds.1 mph89%29.80 "Hg5 mi
11:30 PM
Sep 21
82 °FPassing clouds.No wind84%29.83 "Hg5 mi
11:00 PM84 °FPassing clouds.1 mph79%29.80 "Hg5 mi
10:30 PM82 °FPassing clouds.2 mph84%29.83 "Hg5 mi
10:00 PM82 °FPassing clouds.3 mph84%29.83 "Hg5 mi
9:30 PM82 °FPassing clouds.2 mph84%29.80 "Hg5 mi
9:00 PM82 °FPassing clouds.2 mph89%29.80 "Hg5 mi
8:30 PM82 °FPassing clouds.2 mph89%29.80 "Hg5 mi
8:00 PM82 °FPassing clouds.5 mph89%29.80 "Hg4 mi
7:30 PM82 °FLight rain. Passing clouds.3 mph89%29.77 "Hg4 mi
7:00 PM86 °FPassing clouds.2 mph70%29.77 "HgN/A
6:30 PM86 °FPassing clouds.5 mph66%29.77 "HgN/A
6:00 PM86 °FPassing clouds.2 mph66%29.74 "HgN/A
5:30 PM86 °FBroken clouds.5 mph66%29.74 "HgN/A
5:00 PM88 °FBroken clouds.3 mph62%29.71 "HgN/A
4:30 PM90 °FBroken clouds.6 mph67%29.71 "HgN/A
4:00 PM90 °FBroken clouds.1 mph67%29.71 "HgN/A
3:30 PM90 °FBroken clouds.5 mph67%29.68 "Hg5 mi
3:00 PM91 °FBroken clouds.9 mph63%29.71 "Hg5 mi
2:30 PM91 °FBroken clouds.7 mph63%29.71 "Hg5 mi
2:00 PM93 °FBroken clouds.3 mph53%29.71 "HgN/A
1:30 PM95 °FPartly sunny.5 mph53%29.71 "HgN/A
1:00 PM95 °FPartly sunny.2 mph53%29.71 "HgN/A
12:30 PM95 °FPartly sunny.1 mph53%29.71 "HgN/A
12:00 PM95 °FPartly sunny.5 mph53%29.74 "HgN/A
11:30 AM93 °FPartly sunny.7 mph59%29.77 "HgN/A
11:00 AM91 °FPartly sunny.7 mph59%29.77 "HgN/A
10:30 AM95 °FPartly sunny.2 mph53%29.77 "HgN/A
10:00 AM95 °FPartly sunny.1 mph50%29.77 "HgN/A
9:30 AM95 °FPartly sunny.2 mph50%29.77 "HgN/A
9:00 AM93 °FPartly sunny.1 mph53%29.77 "HgN/A
8:30 AM91 °FPartly sunny.2 mph59%29.77 "HgN/A
8:00 AM90 °FPartly sunny.1 mph63%29.77 "HgN/A
7:30 AM86 °FPartly sunny.1 mph70%29.77 "HgN/A
7:00 AM86 °FPartly sunny.2 mph75%29.77 "HgN/A
6:30 AM84 °FPartly sunny.1 mph74%29.74 "HgN/A
6:00 AM77 °FPartly sunny.2 mph89%29.74 "HgN/A
5:30 AM77 °FPassing clouds.2 mph89%29.74 "HgN/A
5:00 AM77 °FPassing clouds.No wind89%29.71 "HgN/A
4:30 AM77 °FPassing clouds.1 mph89%29.71 "HgN/A
4:00 AM77 °FPassing clouds.No wind89%29.71 "HgN/A
3:30 AM77 °FPassing clouds.2 mph89%29.71 "HgN/A
3:00 AM77 °FPassing clouds.5 mph89%29.71 "HgN/A
2:30 AM77 °FPassing clouds.1 mph89%29.71 "HgN/A
2:00 AM77 °FPassing clouds.2 mph89%29.71 "HgN/A
1:30 AM77 °FPassing clouds.6 mph89%29.71 "HgN/A
1:00 AM77 °FPassing clouds.2 mph83%29.74 "HgN/A
Weather by CustomWeather, © 2014

See weather overviewHow to use our weather pages